CAPE
2086 2568 2893 2856 2724 2709 2738 2626 2487 2214 2355 2082 2023 1917 1828 1801 1763 1748 1773 1728 1762 1757 1754 1719 1719 1591 1560 1507 1377 1166 1098 1120 980 708 449 497 473 446 374 322 318 108 127 95 214 345 395 371 534 779 746 770 1004 950 1111 1275 1229 1000 975 1096 1162 1199 1123 1187 1246 1273 1354 1416 1227 1384 1285 1449 1340 1119 1223 1432 1534 1513 1510 1602 1469 1321 1312 1472 1510
2121 2603 2870 2769 2634 2719 2730 2601 2493 2146 2088 2154 1932 1906 1824 1791 1782 1797 1761 1725 1742 1762 1768 1787 1767 1628 1450 1374 1264 1198 1152 1069 887 749 676 583 550 500 367 308 340 364 456 450 364 360 535 547 550 723 674 857 851 991 1173 1215 1409 1329 1122 1129 1057 1257 1219 1232 1354 1352 1308 1333 1287 1237 1255 1250 1276 1199 1143 1193 1149 1621 1636 1581 1484 1159 1193 1318 1325
2312 2663 2856 2759 2788 2794 2588 2516 2458 2316 2076 2129 1910 1804 1826 1820 1784 1753 1674 1583 1694 1695 1717 1710 1714 1591 1459 1339 1239 1143 1134 947 651 619 674 617 400 447 478 449 426 423 462 464 484 555 473 596 623 628 765 856 812 1071 1177 1184 1402 1342 1328 1219 979 928 1019 1063 1022 1325 1296 1134 1148 1193 1007 1131 1206 1060 1052 1047 1507 1594 1455 1440 1272 1234 1173 1268 1196
2322 2637 2789 2833 2800 2595 2486 2522 2473 2332 2245 2171 1894 1906 1891 1632 1758 1701 1708 1704 1625 1639 1668 1688 1663 1520 1410 1338 1305 1259 1087 867 802 734 704 664 509 408 431 449 426 434 378 395 380 512 597 592 557 583 768 776 1040 1137 1188 1176 981 830 925 1018 1068 985 914 1002 1114 1159 1262 1238 1042 910 921 993 1086 1149 1220 1260 1402 1418 1325 1309 1290 1233 1191 1179 1130
2270 2578 2746 2686 2580 2476 2441 2435 2397 2439 2257 2084 2042 1971 1966 1828 1826 1815 1811 1784 1721 1698 1702 1690 1615 1509 1430 1355 1325 1266 1062 843 837 787 780 718 622 519 551 456 421 511 578 290 248 468 538 557 520 582 712 890 1049 1049 1168 1157 1097 863 912 1034 1252 1301 1212 1378 1197 1172 1255 1227 1089 885 845 882 939 1228 1289 1345 1225 1132 1080 1130 1130 1098 1074 1085 1078
2255 2519 2608 2508 2365 2395 2369 2380 2459 2393 2401 2138 2022 2054 2044 2086 1974 1983 1881 1837 1777 1732 1734 1682 1593 1527 1462 1422 1389 1274 1107 932 800 819 1011 792 713 576 564 516 691 649 655 763 702 401 372 481 454 545 679 777 820 803 972 963 1017 1090 1085 1048 1092 1097 1113 1217 1311 1162 1144 1108 990 868 916 927 950 1112 1351 1270 1206 1152 1076 953 890 872 862 878 930
2399 2454 2454 2424 2282 2266 2313 2419 2503 2331 2239 2159 2102 2041 2090 2048 2071 1986 1926 1879 1838 1756 1691 1679 1606 1535 1424 1416 1355 1216 1005 871 808 936 1114 701 667 698 593 556 608 679 859 1047 1064 984 673 530 599 716 819 825 798 859 812 774 766 808 960 963 984 1047 1142 1081 1069 999 810 762 804 812 856 925 1003 1093 1261 1311 1212 1049 936 909 856 843 773 744 770
2297 2326 2394 2382 2207 2232 2375 2541 2474 2373 2273 2182 2037 2080 2112 2068 2055 1853 1993 1939 1897 1792 1713 1679 1577 1453 1361 1374 1305 1184 930 884 1201 1508 1068 747 775 884 803 709 849 999 1210 1314 1310 1294 977 612 646 721 742 740 751 768 743 727 802 834 845 862 849 846 1132 1160 1061 1075 595 613 644 703 717 780 825 863 1061 1062 1035 927 809 809 756 748 714 665 553
2165 2276 2416 2346 2162 2456 2512 2472 2436 2371 2240 2187 2101 1974 2068 2151 2145 2112 2073 1938 1876 1838 1765 1714 1567 1437 1396 1399 1320 1030 843 1165 1803 1431 992 929 843 946 1103 1041 1318 1532 1452 1468 1464 1443 1235 1025 930 900 906 867 764 736 782 834 734 873 821 826 882 939 1181 1561 1494 1004 490 456 438 549 626 698 734 700 628 338 237 306 342 359 462 424 408 286 245
2018 2251 2347 2259 2278 2556 2477 2442 2442 2420 2303 2227 2130 2122 2113 2180 2187 2127 1986 1965 1868 1881 1795 1644 1528 1427 1429 1354 1336 1029 969 1507 1860 1564 1220 1003 922 1072 1138 1269 1363 1475 1617 1519 1384 1454 1172 804 667 806 913 974 1082 998 938 970 1020 837 759 796 811 1212 1244 1223 785 686 477 580 633 680 816 799 716 788 826 532 480 440 312 243 370 216 208 163 821
2028 2188 2271 2387 2442 2402 2382 2398 2484 2421 2287 2205 2144 2131 2142 2176 2243 2150 2037 1986 1913 1862 1818 1666 1499 1433 1452 1412 1415 1198 1092 1503 1793 1578 1270 1120 1193 1264 1258 1542 1762 1803 1718 1756 1564 1196 1064 986 928 903 999 1011 1116 1294 1204 1040 952 712 762 954 1228 1261 498 449 470 491 497 456 518 632 838 844 635 695 640 474 385 304 250 228 274 257 242 381 796
1998 2202 2403 2490 2660 2311 2351 2396 2454 2382 2266 2151 2133 2130 2172 2179 2253 2146 2084 2020 1964 1873 1813 1722 1672 1494 1498 1502 1498 1369 1229 1272 1668 1496 1295 1261 1669 1929 1990 2004 1902 1821 1707 1440 1298 1315 1282 1217 1138 1087 950 1120 1366 1281 1118 831 922 1055 1043 1019 1330 1401 383 466 497 500 467 197 280 315 347 403 484 614 716 580 184 98 179 252 175 97 155 344 663
1993 2255 2428 2402 2388 2344 2391 2366 2446 2402 2271 2185 2138 2151 2230 2218 2251 2169 2068 2020 2013 1908 1787 1735 1750 1706 1676 1643 1557 1534 1410 1401 1592 1498 1379 1531 1993 2062 2021 1848 1773 1751 1603 1392 1389 1410 1355 1325 1275 1258 1173 1133 1250 1117 865 1132 1263 1320 1058 1209 1487 1088 280 230 132 130 131 137 130 169 140 124 163 249 159 32 248 292 357 292 267 343 447 784 862
1981 2135 2282 2326 2409 2672 2358 2270 2290 2380 2347 2245 2222 2279 2262 2350 2286 2169 2049 1991 1988 1963 1869 1870 1816 1812 1857 1850 1822 1805 1748 1766 1710 1430 1556 1920 2082 2170 1978 1856 1686 1539 1475 1398 1398 1509 1467 1399 1393 1313 1317 1257 1187 1101 1234 1429 1390 1511 1324 1463 1701 1086 378 322 224 94 87 67 162 118 144 285 379 539 389 375 276 208 234 264 331 344 587 740 720
1897 2080 2228 2288 2365 2449 2585 2270 2229 2282 2202 2196 2221 2254 2320 2210 2083 2023 2035 2046 1993 1856 1866 1934 1855 1893 2062 2114 2076 2021 1847 1661 1478 1430 1960 2058 2024 1985 1897 1645 1540 1460 1369 1425 1489 1404 1366 1393 1314 1352 1426 1350 1374 1493 1637 1546 1437 1393 1498 1584 1932 1277 275 44 31 4 7 15 11 29 478 560 677 458 401 370 269 225 348 394 376 454 576 559 545
1933 2062 2065 2082 2186 2377 2330 2431 2327 2209 2137 2146 2191 2257 2201 2046 1997 2058 2040 1992 1866 1794 1849 1816 1899 1984 1959 1984 2101 2097 1729 1608 1970 2010 1910 1870 1873 1880 1765 1620 1603 1522 1479 1517 1509 1466 1445 1434 1358 1383 1484 1342 1466 1648 1592 1514 1417 1436 1714 1210 587 350 312 135 95 0 0 0 13 78 280 305 496 426 475 366 293 218 160 154 305 340 311 409 436
1928 1952 1972 1984 2079 2151 2206 2116 1819 2207 2064 2157 2157 2105 2041 1912 1964 1996 1950 1948 1966 1934 1706 1854 1869 1909 1834 1897 1995 2040 2159 2353 2281 2004 2005 1964 1906 1795 1631 1491 1518 1443 1511 1398 1416 1476 1405 1453 1443 1342 1405 1478 1624 1699 1548 1346 1429 1526 1112 375 318 311 422 517 341 0 6 122 143 44 40 104 325 422 341 260 214 189 183 142 125 183 186 228 267
1849 1871 1862 1924 1952 2015 2063 1895 1755 1791 1827 1876 2043 2014 1929 1909 1882 1905 1927 1957 1972 1872 1801 1766 1775 1832 1905 1951 1980 2046 1994 2080 2212 2127 2064 1941 1818 1627 1519 1516 1479 1412 1393 1512 1521 1460 1431 1411 1460 1468 1374 1510 1533 1518 1584 1583 1472 1710 946 702 593 502 490 488 29 81 213 274 30 134 103 607 442 233 228 220 238 219 266 300 322 344 310 275 212
1726 1764 1770 1743 1727 1775 1846 1834 1734 1737 1672 1688 1739 2026 1940 1818 1842 1972 1960 1974 1951 1823 1737 1623 1601 1818 1994 2018 1971 1892 1915 2137 2155 2127 2024 1887 1702 1577 1511 1524 1449 1509 1433 1361 1391 1403 1390 1437 1470 1435 1455 1513 1633 1762 1749 1572 1665 1756 1814 865 618 469 482 328 39 28 35 0 0 14 455 607 504 378 462 565 529 515 424 388 408 309 254 277 219
1568 1608 1582 1564 1569 1612 1674 1628 1650 1598 1595 1546 1599 1715 1882 1826 2007 1990 1924 1999 1962 1782 1661 1694 1881 1939 1979 1921 1778 1780 1663 1931 2098 2062 1988 1830 1690 1424 1530 1512 1413 1394 1386 1567 1607 1478 1446 1441 1404 1390 1412 1480 1577 1536 1652 1650 1630 1789 1568 532 492 427 364 187 94 8 4 77 84 112 518 475 340 179 341 282 258 296 243 220 188 189 219 193 160
1372 1397 1409 1457 1489 1552 1547 1509 1507 1529 1497 1449 1511 1555 1703 2027 2023 2072 2000 2016 1976 1780 1649 1966 1920 1842 1753 1764 1567 1467 1537 1599 1700 1718 1852 1696 1570 1549 1528 1532 1338 1363 1480 1464 1561 1564 1537 1521 1426 1428 1502 1499 1520 1537 1473 1407 1598 1814 1264 492 377 392 256 235 170 97 89 249 313 283 215 61 80 249 225 158 182 230 237 210 196 136 136 138 105
1112 1270 1358 1397 1440 1459 1452 1390 1440 1478 1416 1391 1377 1433 1702 1941 1648 1818 1984 1914 1892 1784 1741 1620 1786 1439 1541 1383 1320 1438 1456 1425 1448 1853 1452 1553 1516 1470 1436 1462 1392 1420 1458 1466 1519 1551 1510 1544 1572 1521 1539 1514 1513 738 751 932 1507 1472 1162 547 359 330 300 259 165 107 139 162 196 341 349 331 319 320 344 324 229 138 72 201 201 137 93 81 64
1014 1150 1285 1366 1335 1333 1434 1361 1343 1437 1403 1305 1302 1396 1769 1635 1653 1750 1862 1855 1845 1783 1514 1690 1380 1300 1255 1305 1352 1404 1386 1335 1347 1416 1413 1366 1473 1378 1322 1348 1371 1328 1405 1406 1340 1396 1479 1515 1566 1610 1512 1483 1079 828 745 750 786 992 793 433 372 342 296 280 144 97 97 103 56 270 225 319 245 235 252 152 152 206 174 188 192 168 146 125 104
840 999 1166 1211 1131 1126 1221 1290 1314 1362 1358 1292 1283 1496 1684 1558 1623 1662 1744 1704 1684 1507 1426 1390 1290 1222 1228 1218 1220 1228 1222 1244 1487 1691 1635 1321 1428 1297 1222 1133 1347 1306 1243 1377 1186 1196 1262 1224 1430 1666 1434 1328 1010 921 832 864 782 678 447 342 323 290 284 283 200 112 104 177 132 276 239 195 214 195 79 142 214 110 36 5 4 19 24 27 34
754 903 914 1026 944 927 1034 1068 1163 1306 1291 1270 1278 1486 1522 1494 1506 1502 1536 1548 1512 1373 1354 1311 1250 1172 1132 1112 1106 1094 1062 1107 1167 1272 1186 1221 1174 1044 1000 855 912 1014 912 990 984 891 502 634 983 1062 1044 1073 976 900 965 906 801 697 514 362 306 366 370 376 368 292 122 118 208 230 199 204 237 230 249 168 113 109 103 107 88 40 0 7 28
878 854 820 836 900 883 995 984 1121 1271 1199 1239 1235 1343 1388 1351 1386 1388 1396 1412 1390 1275 1270 1265 1188 1092 1028 1020 1044 1037 1005 935 870 959 1090 1086 953 908 889 804 833 812 529 503 676 369 94 186 421 499 633 805 915 1033 1069 960 768 716 484 421 419 442 465 427 395 360 127 190 232 221 273 266 249 246 140 152 130 122 113 109 104 64 43 54 41
964 795 715 749 825 851 936 934 1064 1089 1019 1154 1190 1207 1208 1258 1286 1300 1310 1284 1334 1268 1272 1207 1079 1009 974 955 1001 996 939 802 787 884 975 930 845 855 808 752 753 692 560 491 168 221 27 39 322 590 777 858 856 976 1102 1029 946 739 534 444 418 453 455 436 406 257 64 81 302 200 211 249 177 179 155 134 159 148 72 78 62 48 49 28 41
876 717 756 774 725 743 815 885 892 946 884 1040 1099 1111 1106 1220 1260 1408 1214 1225 1244 1256 1221 1132 1024 992 965 896 889 908 817 737 774 801 826 821 793 767 708 647 558 514 594 540 51 244 0 2 138 300 282 361 552 822 1043 960 881 763 595 463 428 370 388 386 369 211 123 208 245 341 324 290 260 224 167 96 126 90 124 108 106 45 61 68 52
788 727 753 768 757 737 712 684 726 717 830 932 945 1031 1082 1165 1240 1266 1186 1157 1205 1154 1139 1114 1042 992 963 883 835 840 756 705 759 753 721 734 710 699 603 535 203 131 508 494 284 275 36 1 3 182 243 281 395 716 923 746 694 696 726 494 407 370 338 344 333 212 102 246 223 263 267 236 362 152 109 144 175 173 191 173 148 72 96 112 43
811 697 671 746 809 734 679 624 621 689 755 835 819 945 1039 1102 1204 1232 1089 1108 1168 1158 1118 1100 1010 964 958 914 846 817 762 723 726 694 639 632 595 487 449 398 44 0 163 454 472 315 64 0 0 1 6 246 656 890 797 543 505 580 519 545 429 367 336 321 291 255 198 275 204 268 236 371 346 350 238 187 200 156 150 127 95 80 93 72 56
1071 985 714 754 837 768 673 677 698 719 770 775 668 858 956 1049 1242 1203 1114 1089 1094 1088 1115 1079 916 859 966 963 880 811 774 760 720 652 600 592 520 446 109 203 58 0 0 1 371 276 0 0 0 20 171 208 588 714 744 531 428 474 460 424 352 337 330 330 353 398 448 382 146 182 222 199 199 333 506 330 171 108 162 111 79 67 69 91 99
1279 1026 772 837 828 774 725 742 753 798 785 675 580 710 847 1055 1281 1235 1120 1061 1037 1048 1043 1014 884 832 985 1028 909 814 800 778 686 644 619 631 772 581 244 68 14 0 0 0 70 12 59 4 97 226 342 286 426 624 691 397 322 352 350 319 374 370 370 359 455 518 504 424 244 94 127 378 529 526 511 276 186 170 148 139 142 172 169 156 94
1373 1204 999 894 870 797 770 798 806 824 759 539 447 618 788 926 1241 1269 1147 1000 992 1014 973 966 861 752 986 1064 969 849 805 742 685 655 605 861 966 775 556 364 324 316 0 418 209 302 268 417 347 421 393 358 376 505 427 287 271 312 287 168 454 404 360 411 480 509 531 432 172 67 100 328 318 250 157 66 276 210 220 217 201 202 168 144 123
1478 1317 1261 1048 858 848 834 874 932 861 698 430 451 501 712 843 1181 1226 1184 1022 986 996 996 907 818 683 866 1023 1003 982 877 792 760 708 714 890 746 764 757 558 477 382 160 561 514 391 280 402 407 497 547 366 390 357 325 288 282 329 301 32 410 435 414 450 408 453 505 469 229 34 60 43 30 32 128 147 604 561 426 295 209 187 171 184 166
1586 1483 1334 1230 1053 1016 946 924 947 912 650 572 598 559 658 754 1120 1220 1226 1130 1053 983 943 900 832 695 751 966 1105 1054 920 914 901 821 778 791 628 756 611 565 604 555 587 660 707 556 461 458 456 533 502 452 411 385 370 323 303 296 244 0 0 309 396 396 339 350 460 460 289 284 220 50 10 42 294 543 1193 1123 1082 952 673 396 265 218 238
1689 1625 1503 1348 1222 1182 1070 1070 1042 970 801 738 702 645 719 857 1030 1210 1195 1158 1109 1030 994 913 833 872 873 1090 1146 1108 952 945 948 880 715 651 648 808 666 708 652 600 641 714 729 710 536 544 516 527 488 420 388 322 284 246 256 230 98 9 0 160 376 403 376 412 425 372 355 337 265 113 4 144 569 375 587 790 1006 1008 902 774 752 549 388
1898 1852 1722 1520 1290 1332 1231 1146 1191 1134 951 905 873 784 835 1045 1086 1161 1242 1215 1100 1041 987 946 930 926 1010 1166 1180 1054 992 885 881 816 589 553 675 825 846 726 672 629 618 828 767 652 687 502 496 465 410 365 274 228 210 215 266 133 46 21 0 0 0 335 439 389 369 382 356 388 326 196 284 948 210 289 490 820 1066 1020 1035 960 807 587 633
2121 2056 1918 1733 1474 1348 1446 1384 1278 1220 1141 1028 1000 869 979 1113 1146 1167 1215 1213 1192 1083 1020 947 897 894 1054 1138 1151 977 831 784 656 532 509 547 634 796 867 818 675 666 811 974 820 596 595 533 459 400 356 320 268 260 260 203 154 118 52 0 0 0 60 78 346 330 423 442 358 411 413 499 440 266 119 204 514 620 787 922 914 792 778 600 520
2266 2191 1976 1752 1577 1416 1449 1442 1403 1323 1226 1072 1029 978 1053 1171 1199 1107 1182 1166 1161 1152 1078 954 906 849 1032 1117 1032 819 724 594 441 427 499 443 594 746 880 808 668 764 879 852 829 743 503 482 447 382 330 212 285 235 229 289 226 176 188 114 0 5 67 174 341 313 364 427 370 352 390 432 315 124 62 162 337 456 461 194 164 383 552 530 496
2385 2227 1960 1674 1504 1386 1419 1424 1419 1362 1220 998 1032 1070 1099 1170 1197 1163 1162 1068 1102 1161 1062 927 960 948 1015 1084 1066 772 545 512 400 264 342 392 512 691 886 686 926 838 832 694 776 629 464 434 420 378 298 338 306 306 309 164 193 274 149 85 218 51 28 45 98 180 360 417 342 297 360 218 221 135 110 174 284 250 198 316 196 204 390 680 674
2447 2304 2007 1622 1396 1290 1349 1421 1395 1343 1256 1042 982 1091 1117 1153 1124 1169 1153 965 1110 1181 1183 1116 1019 1077 1059 1106 971 729 458 409 306 336 336 411 513 653 870 692 977 850 917 780 727 611 515 478 417 326 359 354 368 375 312 200 128 202 182 150 138 118 87 34 50 65 94 120 281 181 152 283 168 232 212 246 262 308 532 446 114 115 389 482 571
2511 2395 2086 1643 1393 1453 1508 1488 1398 1333 1266 937 794 1065 1098 1081 1072 1075 887 793 874 959 1121 1240 1132 1091 1057 1041 858 755 585 460 330 373 322 406 430 526 752 686 1012 723 724 591 564 695 570 550 457 291 443 391 401 371 339 260 102 147 200 185 232 193 164 98 67 24 70 121 174 166 284 202 183 129 337 411 418 492 496 416 38 352 372 399 443
2446 2415 2117 1648 1474 1647 1561 1512 1471 1358 1360 1261 933 1163 1100 1020 984 987 849 734 681 773 950 950 1160 1101 949 881 835 808 548 401 375 420 445 516 392 424 484 677 982 839 659 584 723 758 713 627 499 319 336 430 367 408 388 278 14 106 78 97 83 58 40 138 143 184 47 83 46 228 261 171 212 149 279 457 402 344 400 242 63 290 304 383 388
2397 2258 2112 1741 1621 1699 1619 1509 1520 1452 1403 1286 912 1079 1091 991 971 917 806 594 567 650 583 768 924 945 927 762 778 802 686 627 424 542 523 504 346 426 514 646 914 808 739 702 810 783 763 512 508 358 356 371 387 367 287 229 36 0 3 7 28 26 36 74 188 168 105 147 159 239 248 198 104 174 411 390 384 355 442 152 89 225 244 331 376
2395 2181 2058 1805 1726 1679 1650 1499 1517 1506 1297 1282 871 928 1004 825 891 804 771 731 602 609 798 798 776 774 772 628 723 878 762 923 807 625 766 511 379 427 497 710 970 809 704 756 858 800 656 472 484 291 301 316 290 250 215 134 83 0 0 2 4 1 8 23 101 55 66 87 168 45 29 142 215 275 389 314 267 228 406 251 0 202 232 309 343
2374 2190 2016 1671 1689 1700 1642 1526 1480 1442 1352 1268 956 771 850 865 892 748 708 658 432 629 820 864 854 759 627 627 642 800 958 859 950 874 745 554 532 556 602 734 959 794 632 612 833 812 680 625 486 568 354 303 321 326 340 332 168 33 0 0 0 18 0 21 47 10 44 86 72 124 205 226 218 308 184 124 144 208 337 203 21 208 238 299 314
2333 2217 2022 1604 1624 1639 1573 1488 1464 1487 1528 1399 1015 714 779 828 747 855 746 605 437 535 855 852 863 729 631 595 612 725 794 940 912 898 650 634 575 579 784 949 945 732 593 545 670 740 691 636 512 557 442 375 398 410 409 451 273 286 164 139 151 2 0 0 3 12 46 132 195 216 105 215 115 169 22 0 27 248 279 8 155 212 220 228 238
2300 2163 1874 1605 1604 1510 1430 1556 1584 1481 1447 1312 1012 717 887 797 742 855 728 667 525 589 799 851 752 649 712 543 709 701 808 940 986 962 770 686 552 554 910 1066 891 866 790 696 647 601 645 624 556 542 476 454 477 415 428 351 253 367 428 486 86 0 0 0 0 7 9 56 179 166 172 161 27 223 22 98 33 250 132 164 203 135 98 0 0
2285 2108 1687 1610 1582 1542 1492 1673 1744 1628 1418 1246 960 861 871 796 816 772 700 759 724 687 802 827 686 695 771 484 753 808 845 914 962 951 982 721 771 798 908 1054 1023 1022 1004 850 720 662 593 705 614 592 541 488 460 432 361 318 327 334 490 446 5 0 0 0 0 0 9 104 176 157 173 145 192 257 0 0 62 199 136 210 219 169 32 0 0
2127 1983 1716 1700 1673 1661 1583 1629 1620 1506 1366 1140 969 863 832 914 877 818 854 823 761 800 798 778 890 930 933 624 742 812 906 858 812 818 848 760 901 1026 961 914 1021 1028 980 765 752 830 719 653 717 610 600 544 483 415 392 364 327 41 481 388 0 0 0 91 1 0 15 93 102 116 146 106 117 131 0 3 194 216 16 217 194 159 0 0 0
1931 1883 1811 1764 1716 1708 1643 1531 1494 1453 1365 1071 952 881 784 943 865 863 870 888 764 756 677 692 914 1026 1013 890 883 785 952 825 751 745 756 854 897 1070 1101 934 985 987 907 824 776 688 648 551 553 527 510 462 405 420 342 358 357 194 487 400 20 22 14 0 3 0 3 6 45 68 50 7 0 0 32 152 196 141 69 164 18 0 0 0 0
Wind_Speed
17 25 26 31 31 31 31 33 34 35 36 36 35 37 38 38 37 37 38 39 39 39 38 39 40 40 39 39 39 38 37 35 33 31 31 31 31 31 29 27 26 24 22 nan 21 20 21 21 22 22 22 22 22 22 21 21 23 24 24 23 21 21 21 19 21 20 16 19 20 18 16 17 16 16 16 17 16 15 14 13 12 9 7 10 13
25 24 27 29 34 33 33 33 34 35 36 36 36 37 38 38 38 38 38 39 39 39 38 39 40 40 39 39 39 38 37 36 33 31 31 31 31 31 29 27 26 25 23 22 22 21 21 21 20 21 21 22 22 20 20 20 21 22 23 24 21 22 21 19 21 20 20 20 20 18 17 16 15 14 15 16 16 15 14 14 14 7 6 12 13
30 28 27 30 34 34 34 34 35 34 35 36 37 37 37 38 38 38 38 38 38 37 38 39 40 39 39 39 38 38 38 36 33 32 31 31 30 31 30 28 26 25 23 22 21 21 21 20 20 20 22 22 21 20 20 20 20 19 22 20 18 16 17 17 16 16 18 19 18 18 19 18 17 16 16 17 16 16 15 14 13 11 7 14 12
34 29 28 31 35 34 34 34 34 35 35 35 37 36 36 37 37 37 36 36 37 37 37 38 38 38 38 38 38 38 38 36 33 32 31 31 30 31 29 28 26 25 23 22 21 21 20 20 20 20 20 18 17 17 18 19 18 18 15 16 17 16 16 17 16 17 19 19 18 15 9 7 10 16 18 18 18 16 14 14 13 13 14 12 14
34 31 30 29 30 32 35 34 34 35 35 36 36 37 37 37 37 36 35 35 36 36 37 38 38 38 38 38 38 38 38 36 33 32 31 31 30 30 28 27 26 25 23 21 20 20 20 19 18 17 17 17 16 15 14 14 15 15 15 15 13 12 12 12 13 16 17 18 17 12 7 7 7 16 17 18 17 15 14 13 13 13 13 13 13
33 31 30 30 29 30 34 34 34 35 35 36 36 37 37 37 37 35 35 36 36 36 37 38 38 38 38 38 38 38 38 36 33 31 29 30 28 28 28 28 26 24 22 21 21 20 19 18 18 18 17 16 15 14 12 12 11 10 10 10 10 11 11 10 12 13 14 15 14 8 7 6 7 10 18 17 16 14 14 13 13 12 12 13 12
35 31 31 30 29 30 32 33 35 34 35 36 36 36 36 37 36 35 35 35 35 36 37 37 38 38 38 38 37 37 37 36 33 29 28 29 28 26 28 27 25 23 21 21 21 20 19 17 17 17 16 15 14 12 11 10 10 9 9 9 9 8 10 10 10 12 12 8 7 7 7 7 6 7 17 16 15 15 14 14 13 12 12 12 12
33 31 31 30 29 31 33 33 35 34 34 34 34 35 36 36 35 35 34 34 34 35 37 37 38 38 37 37 37 36 36 34 30 27 29 28 27 25 25 27 25 22 21 21 20 19 17 15 15 14 14 13 12 11 10 10 9 9 8 8 7 6 5 4 7 8 11 7 7 6 6 7 8 7 14 16 16 15 14 14 13 13 13 14 13
33 33 32 31 30 36 33 32 33 34 33 34 34 35 35 35 35 34 34 33 33 35 37 37 37 38 37 37 37 35 34 31 29 30 29 28 27 25 24 26 24 22 21 20 19 17 16 14 13 13 13 12 11 11 10 9 8 8 7 6 5 4 4 2 6 10 8 5 6 6 9 9 8 8 12 14 14 14 14 12 12 14 14 13 12
33 31 31 30 30 35 34 32 32 33 32 33 33 34 34 34 33 33 33 33 34 35 36 37 38 37 36 37 36 34 33 31 31 29 28 28 27 26 26 25 24 23 22 21 20 17 15 13 11 11 11 10 10 10 9 8 7 7 7 5 3 4 8 16 16 10 6 6 8 8 10 11 7 8 13 15 15 15 13 13 10 11 11 14 16
33 31 30 31 33 35 34 32 31 31 32 32 32 33 33 33 33 32 33 33 34 36 36 37 37 37 37 36 35 33 32 31 29 28 28 28 27 26 26 25 24 23 22 21 19 17 15 13 11 11 10 9 9 9 8 7 6 5 4 3 4 8 14 17 14 8 6 7 7 7 11 14 7 7 15 16 16 17 17 16 16 15 15 16 16
32 31 30 30 36 35 34 32 30 29 30 31 32 33 32 32 31 31 31 32 34 35 35 36 36 37 37 36 34 33 31 30 28 28 28 28 28 28 27 26 25 24 22 20 18 17 16 13 11 11 9 9 8 8 7 5 3 3 3 5 7 9 17 17 11 8 6 7 9 9 9 9 8 11 18 17 17 nan 17 17 17 nan 16 15 16
33 32 31 31 31 34 33 30 29 29 30 30 31 31 31 31 30 30 30 31 32 33 34 36 35 35 34 34 33 32 31 28 26 27 28 29 29 28 27 26 25 23 22 21 19 17 16 14 12 11 10 9 9 7 5 5 3 4 6 6 7 12 18 17 10 8 6 8 9 8 8 7 7 14 16 nan 16 18 17 16 17 16 16 17 18
34 32 30 31 29 33 31 29 28 29 29 29 29 28 29 28 28 28 29 30 30 32 33 35 34 33 32 32 31 30 28 25 24 27 29 29 28 28 27 26 24 23 22 20 19 17 16 14 13 12 10 9 8 6 7 7 8 7 6 5 6 12 18 13 10 nan nan nan 10 10 8 7 8 14 15 16 17 17 18 18 16 16 19 20 19
35 33 31 28 27 26 30 29 28 28 28 27 27 27 27 27 28 29 29 30 31 33 34 34 34 32 31 31 30 30 27 24 25 27 28 29 28 27 26 25 24 23 21 20 19 17 16 14 13 12 11 8 6 7 10 12 10 8 7 5 7 12 16 nan nan nan nan nan nan nan 9 8 13 15 16 16 16 17 18 18 18 18 19 20 19
35 32 29 26 25 24 25 29 29 28 27 27 26 27 28 28 29 30 30 31 33 34 34 34 34 32 31 31 30 29 27 25 25 27 28 28 28 27 26 24 24 23 22 20 18 17 16 14 12 12 11 7 5 9 12 13 12 10 7 16 22 18 17 11 nan nan nan nan nan nan 7 9 16 16 16 17 17 17 17 18 19 19 19 20 20
31 28 27 25 26 26 27 27 28 32 29 28 27 27 29 30 30 30 31 33 34 34 35 35 34 33 32 31 29 26 25 27 28 28 28 27 27 27 25 24 23 23 22 20 17 16 15 14 13 11 10 7 7 8 11 13 13 11 17 26 22 19 18 13 8 nan nan 8 8 nan nan 8 14 15 16 16 17 17 17 17 18 18 18 18 19
29 28 28 27 28 29 28 28 27 27 25 28 28 29 29 30 30 30 32 34 34 34 35 35 35 34 32 30 28 24 25 28 28 28 28 28 27 25 24 23 23 22 21 20 17 15 15 13 12 11 9 8 8 8 10 10 11 13 18 19 19 19 19 14 nan nan 8 9 nan 7 6 9 15 15 16 17 17 17 17 17 17 18 18 18 19
29 28 29 29 29 29 29 28 27 27 26 24 24 26 30 30 29 31 34 34 33 34 35 35 35 33 31 29 27 25 26 28 28 28 28 27 27 25 23 23 22 22 21 19 17 16 14 13 12 12 10 9 7 8 7 7 10 14 14 17 19 19 19 11 nan nan nan nan nan nan 7 12 13 17 17 17 17 17 17 17 17 17 17 18 18
26 26 27 26 28 29 29 28 29 29 27 25 27 27 29 31 30 33 34 34 34 34 34 33 33 32 30 29 27 24 24 25 29 26 29 28 27 22 22 22 23 21 20 19 18 16 14 14 14 13 11 9 7 6 5 5 9 14 16 17 19 17 10 8 nan nan nan nan nan 8 13 15 16 17 17 17 17 17 17 17 17 17 17 17 17
23 25 25 25 27 28 28 27 28 31 30 31 30 29 28 31 31 35 36 35 35 35 33 33 31 29 27 26 24 20 19 20 23 22 28 24 26 25 22 22 22 20 19 19 18 17 15 16 15 13 11 9 6 4 4 7 10 14 18 19 17 10 9 8 8 nan nan 7 7 10 16 nan nan 17 17 17 17 18 18 17 17 17 16 16 16
24 26 23 24 25 23 25 27 30 33 32 31 28 23 21 25 25 27 29 30 32 34 31 27 26 23 26 23 20 19 19 20 21 24 22 25 26 26 22 21 20 19 18 18 18 17 16 16 15 13 9 8 6 4 6 10 12 16 19 19 11 9 8 8 8 7 6 6 7 11 17 17 17 18 19 19 18 17 nan 17 17 17 nan nan nan
24 23 21 22 22 20 18 21 25 24 21 20 17 13 14 16 19 21 22 25 26 28 26 26 24 23 22 20 19 19 19 20 20 22 22 27 25 25 22 20 18 17 17 17 18 18 16 15 14 12 10 8 7 7 9 10 10 17 21 14 10 9 7 6 8 nan nan 7 nan 14 15 17 18 19 19 19 18 18 17 17 17 17 17 17 17
23 22 23 23 25 24 24 22 17 16 15 15 11 11 13 15 16 16 17 17 19 19 22 24 23 23 21 20 20 20 19 20 23 28 27 23 23 24 22 18 17 16 17 15 17 18 17 15 12 10 10 8 9 9 11 11 11 12 13 13 11 10 9 6 8 9 8 8 7 15 16 17 18 19 nan 19 20 18 nan nan nan nan nan nan nan
26 23 23 24 26 25 25 26 19 16 20 22 18 17 18 19 17 14 12 12 12 13 17 20 21 21 21 20 20 20 20 20 19 20 21 22 21 20 16 14 13 13 15 13 13 13 14 12 9 9 8 8 9 9 10 10 12 13 13 12 12 11 10 8 9 10 8 7 9 16 17 17 17 19 20 20 19 19 18 18 nan nan nan nan nan
29 25 24 26 27 24 25 27 28 30 29 23 20 19 20 19 18 15 12 10 10 10 13 16 17 19 19 20 20 21 21 21 21 20 20 20 20 18 16 15 13 12 13 13 13 12 nan 11 10 8 7 8 8 9 10 10 12 13 12 11 11 11 12 10 9 10 9 7 10 17 16 18 19 19 18 19 19 19 19 19 18 nan nan nan nan
26 23 24 26 30 27 25 26 27 30 31 26 22 19 18 17 17 17 15 12 11 12 15 16 16 17 19 20 20 19 21 21 21 19 19 18 18 17 16 14 12 11 11 12 10 10 nan nan 9 8 7 8 8 11 13 11 10 11 10 9 9 10 13 12 9 9 nan nan 11 17 17 19 19 19 19 18 19 19 nan nan nan nan nan nan nan
21 20 24 25 28 29 27 26 24 25 26 26 23 19 18 18 18 19 17 15 13 14 17 18 17 18 19 19 19 19 20 21 20 19 18 18 18 18 17 14 12 10 10 10 nan 9 nan nan 8 8 8 8 10 12 14 11 8 7 8 8 9 10 13 13 11 10 11 12 12 16 18 19 19 21 20 nan 18 nan 17 17 18 nan nan nan nan
21 19 21 22 26 28 27 27 28 28 27 25 21 18 17 18 19 20 20 19 17 16 17 18 18 18 19 20 19 20 20 21 20 19 19 19 19 19 16 13 11 10 11 9 9 9 nan nan nan 7 8 9 12 14 14 11 6 5 8 9 10 9 11 12 11 10 12 14 15 17 19 20 19 21 21 19 17 17 17 17 17 nan nan 17 nan
20 20 21 21 24 28 29 29 32 33 30 26 20 17 17 19 20 21 21 21 19 19 18 18 18 18 19 19 19 19 20 20 20 20 21 19 18 18 16 12 nan nan 11 9 8 9 nan nan nan nan nan 13 16 13 13 10 6 6 7 10 10 9 9 10 10 10 11 14 15 16 20 18 17 18 20 20 18 16 17 17 nan nan nan nan nan
21 20 21 23 26 28 28 30 31 33 31 27 21 17 17 20 22 22 21 21 21 21 20 20 19 18 18 18 19 19 19 19 20 19 19 18 17 17 15 13 nan nan nan nan 8 7 nan nan nan nan 10 15 17 12 11 10 8 7 7 9 9 8 8 8 9 9 10 11 13 14 15 18 18 18 17 18 18 17 16 16 nan nan nan nan nan
19 19 22 25 27 27 30 31 32 33 32 27 21 18 19 22 23 23 22 21 21 22 22 22 20 19 18 18 18 18 18 17 18 17 17 16 17 16 15 nan nan nan nan nan nan nan nan nan nan 11 11 17 17 12 9 10 9 7 7 8 7 7 6 6 7 7 8 9 10 nan 12 12 16 18 19 18 15 16 16 15 15 14 14 15 nan
17 20 23 25 26 28 30 31 31 31 31 28 23 19 20 23 23 23 23 22 21 21 22 22 21 19 18 17 17 16 16 16 16 17 17 17 18 18 15 12 10 10 nan 8 8 9 13 13 14 12 15 18 17 12 9 8 9 8 8 7 7 6 5 5 6 6 8 9 10 nan 11 11 12 16 17 nan 12 12 14 14 14 13 13 14 14
21 20 23 24 25 27 28 29 30 31 30 27 24 21 20 23 23 23 23 24 21 21 21 21 20 20 19 17 16 15 15 15 16 17 17 18 19 17 13 11 10 10 10 11 12 13 15 15 13 15 14 15 15 11 8 8 8 9 9 nan 5 5 5 5 5 6 8 9 8 nan nan nan nan nan 10 12 9 9 11 12 13 12 12 12 12
22 22 23 24 25 26 28 28 29 30 29 27 25 22 20 23 24 23 24 24 22 21 21 20 20 21 20 18 16 16 15 15 15 17 17 18 18 17 13 10 10 11 13 12 14 16 16 16 15 14 13 14 14 10 7 7 8 9 8 nan nan 5 5 5 5 6 8 7 7 6 7 nan nan nan 9 9 9 11 12 12 12 10 10 11 11
25 22 22 23 25 26 28 29 28 29 29 28 25 24 22 22 23 24 25 24 24 22 21 20 21 22 20 18 17 16 15 15 15 15 17 17 18 18 14 12 11 13 13 13 15 16 17 17 13 12 12 13 13 10 6 6 7 7 nan nan nan 4 5 5 6 7 6 6 5 5 5 6 nan 7 8 8 8 8 11 10 9 8 7 8 9
24 24 24 25 26 28 28 28 29 30 30 29 26 24 22 21 21 23 25 25 25 24 22 22 22 21 20 18 18 17 15 15 14 13 16 17 19 17 15 13 12 13 13 13 15 16 18 17 12 10 11 11 10 8 5 5 7 8 nan nan nan nan nan 6 6 6 6 5 5 4 4 4 3 7 7 7 7 8 10 10 10 10 9 9 6
25 25 26 29 29 29 28 27 28 29 30 29 27 26 24 23 22 22 23 24 23 23 22 22 23 21 20 19 17 16 15 14 13 13 15 16 18 17 15 15 14 14 14 14 15 17 18 16 13 10 10 10 7 7 6 5 6 9 nan nan nan nan nan nan 6 6 5 4 3 2 2 2 3 4 5 5 6 8 8 8 9 9 10 7 3
24 26 27 28 29 29 28 28 28 29 29 27 24 25 26 24 22 23 22 24 23 22 22 22 22 22 20 18 17 16 15 14 14 16 16 15 17 18 16 16 15 14 15 15 15 17 17 15 14 12 10 9 6 6 7 6 7 9 8 6 nan nan nan 5 5 5 4 2 2 1 2 2 2 3 nan 4 5 6 6 6 6 6 6 7 1
25 27 28 29 30 31 29 28 29 31 30 26 23 25 26 23 24 21 21 23 22 23 23 21 22 21 19 18 17 16 15 14 15 16 17 15 16 16 16 16 15 14 15 14 13 15 16 17 15 13 9 9 7 7 8 9 9 10 9 nan 7 nan nan nan nan 4 3 2 2 2 1 5 2 3 4 4 4 5 6 5 5 5 5 5 4
26 29 30 29 30 31 30 30 30 29 30 30 23 25 25 23 23 23 21 23 24 25 24 20 21 21 19 18 17 16 15 15 15 16 15 15 16 16 17 16 15 14 15 12 11 13 15 15 14 11 11 10 6 6 7 9 11 9 9 9 9 7 nan nan nan nan nan 3 2 1 1 3 6 6 5 4 4 5 5 5 5 5 5 5 5
25 29 30 30 31 31 30 31 31 29 32 34 27 22 23 22 21 24 26 29 28 27 24 21 21 22 18 16 15 14 13 13 13 14 14 15 17 16 16 14 15 14 14 12 12 14 16 15 13 14 9 10 6 5 7 10 7 8 9 8 8 8 8 nan nan nan nan 3 3 1 2 2 3 5 5 3 3 3 4 4 nan 5 6 5 3
27 28 30 32 33 31 31 32 31 30 30 30 27 24 24 24 21 22 25 24 27 27 25 22 22 20 17 15 14 13 12 11 10 12 14 15 18 17 15 15 16 15 16 13 13 14 14 14 12 13 10 7 8 6 6 5 nan 8 nan nan nan nan nan 7 6 6 nan nan nan 3 3 3 2 5 4 2 2 2 3 3 nan 6 6 4 4
27 28 30 33 34 32 32 32 31 30 30 28 27 26 26 24 19 21 22 24 26 26 25 21 19 20 17 15 15 13 12 11 12 14 15 16 17 17 16 16 16 15 15 13 13 14 14 14 14 10 13 12 8 5 2 6 nan nan nan nan nan nan nan nan 6 7 6 5 4 5 4 4 3 5 3 2 2 2 3 3 nan 5 4 3 3
26 28 29 32 31 33 32 32 30 29 28 28 28 29 30 24 19 21 20 22 25 24 22 18 17 18 17 16 13 14 13 13 13 14 15 15 16 17 16 16 17 15 16 14 13 13 11 11 11 9 10 11 10 8 3 6 nan nan nan nan nan nan nan nan 6 nan nan nan 6 nan nan 3 1 2 5 4 4 4 4 4 nan 4 4 3 4
26 28 29 30 31 31 32 30 28 27 27 28 32 32 29 26 23 20 15 16 16 16 15 14 16 17 15 16 16 14 15 14 13 14 15 15 15 16 16 18 17 16 15 14 14 14 13 11 9 9 9 8 12 10 8 6 5 nan nan nan nan nan nan nan nan nan nan nan nan 4 3 3 4 4 4 4 4 4 4 4 nan 3 4 5 5
24 27 28 30 32 32 32 30 28 25 24 27 32 32 28 24 24 20 15 16 17 15 15 16 18 19 20 17 14 14 14 14 14 15 14 14 16 17 17 18 16 16 15 16 14 12 11 11 11 10 9 10 11 11 9 9 7 6 7 9 9 nan nan nan nan nan nan 6 6 5 6 6 6 4 nan nan nan 6 5 nan 4 5 6 6 6
21 25 27 30 34 33 31 29 27 25 23 26 30 29 26 22 23 20 14 14 14 14 16 18 19 20 18 16 14 13 13 14 14 14 14 15 17 17 17 17 17 16 16 15 14 13 14 14 12 10 11 11 11 12 10 9 10 8 10 10 nan nan nan nan nan nan nan nan 6 8 8 7 nan 5 nan nan nan 5 5 5 5 6 nan nan nan
18 24 24 27 31 33 31 29 28 27 25 27 28 25 23 21 23 23 15 9 9 12 17 19 19 18 17 15 13 13 14 15 15 15 15 16 17 14 16 16 17 16 16 16 16 15 13 14 14 13 12 11 11 12 12 9 10 10 12 12 nan nan nan nan nan nan nan 8 9 7 7 8 9 8 nan nan nan 7 6 6 7 8 nan nan nan
21 25 26 25 27 29 32 33 30 27 27 29 28 25 22 21 22 21 17 13 11 12 12 16 17 17 16 12 12 13 14 16 16 16 16 16 15 13 15 15 16 17 17 16 16 15 15 15 13 12 13 13 13 13 11 10 10 nan 11 12 nan nan nan nan nan nan nan nan 8 6 7 7 6 6 nan nan 9 8 nan 7 9 9 nan nan nan
21 27 27 25 23 24 27 30 28 24 25 27 28 27 25 21 19 20 18 17 14 12 11 11 14 16 15 13 12 12 14 15 16 16 16 16 15 15 16 17 17 17 17 17 17 14 14 14 13 13 14 14 14 14 13 12 11 11 11 11 nan nan nan nan nan nan nan nan nan nan nan nan nan nan nan 10 10 9 nan 8 nan nan nan nan nan
Wind_Direction
302 303 303 305 303 303 301 300 299 297 296 296 295 295 295 296 296 298 301 303 304 305 305 306 307 307 306 306 306 306 306 305 304 303 304 303 301 302 305 305 304 304 304 nan 298 297 295 295 294 291 290 289 286 280 279 276 280 288 290 297 293 280 277 284 285 279 273 271 267 265 264 263 263 259 255 252 245 238 234 227 219 206 203 226 238
306 300 300 302 303 304 303 302 300 299 297 295 295 295 296 297 298 300 303 304 304 304 305 306 307 306 306 307 307 307 306 305 306 307 306 304 303 302 302 302 303 303 303 302 298 298 296 294 292 292 292 290 289 285 279 280 281 282 281 279 278 279 281 280 274 278 279 271 269 269 262 257 265 264 257 254 249 240 233 232 230 205 202 236 241
300 300 299 302 303 304 303 302 301 299 297 296 297 296 296 297 299 301 303 303 303 304 305 306 306 307 307 308 308 307 307 306 306 307 306 305 306 305 303 302 302 303 305 304 303 299 297 295 294 293 293 295 287 277 277 275 271 271 271 268 269 266 272 266 265 272 268 265 261 256 256 262 261 264 261 258 255 247 240 238 238 231 224 237 236
298 300 300 302 303 303 303 303 300 298 296 294 296 295 296 297 299 301 302 302 302 303 305 306 307 308 308 309 308 307 307 307 307 307 308 307 308 306 305 303 301 301 301 303 303 300 297 298 299 299 291 289 282 276 277 275 276 274 265 270 274 273 275 282 278 268 264 262 260 255 249 235 248 255 256 254 253 248 244 241 241 241 241 238 238
294 298 299 297 298 301 302 301 299 296 294 293 293 294 294 296 298 300 301 301 302 303 305 307 308 308 309 309 308 307 307 306 307 308 309 310 310 306 304 302 300 299 303 305 303 301 299 298 299 299 293 290 282 277 277 278 282 288 292 287 270 260 257 258 269 265 261 259 256 253 247 236 229 248 249 251 248 242 237 237 236 237 239 241 243
293 296 295 293 295 298 301 299 297 294 290 291 292 293 294 296 298 299 301 301 302 304 307 308 308 308 308 308 307 307 307 307 307 310 312 310 311 309 305 301 301 301 302 305 305 304 302 301 303 297 295 290 286 279 274 275 267 252 254 255 249 259 261 257 268 263 258 256 255 248 234 218 216 231 245 245 243 239 237 235 236 235 238 242 243
294 294 293 293 293 296 299 296 294 291 289 289 291 292 294 297 298 300 301 302 303 305 308 309 307 307 307 307 306 306 307 307 307 310 310 310 311 311 306 302 301 303 305 304 303 302 302 305 307 304 299 291 284 272 260 257 250 243 235 232 229 230 247 265 262 258 251 241 240 239 238 225 213 217 242 238 239 238 237 235 234 239 243 244 243
290 292 292 293 292 297 296 293 292 289 288 289 290 293 296 299 299 302 302 302 303 306 308 307 305 305 306 305 305 305 307 307 307 308 307 310 312 310 307 303 304 306 304 302 301 300 299 300 299 296 290 282 270 262 258 253 248 240 234 232 225 215 222 280 296 267 257 247 245 240 230 217 207 211 235 232 229 233 235 237 236 240 242 243 241
289 292 291 291 293 297 293 290 288 288 287 289 291 295 297 300 300 301 302 302 303 305 306 304 303 304 305 305 304 305 306 302 303 307 308 310 309 306 301 303 305 306 303 300 300 298 295 294 293 289 284 273 263 260 254 249 246 239 235 227 213 191 154 204 271 275 278 253 245 238 237 225 208 205 235 236 231 231 230 222 224 238 241 243 247
291 290 292 291 291 293 289 287 287 287 288 291 293 296 299 300 300 301 301 302 303 303 303 302 302 303 303 303 303 305 304 300 303 307 308 307 306 304 303 306 307 306 304 302 300 297 294 295 293 288 280 272 263 256 254 250 243 244 238 229 201 181 269 291 277 267 273 267 260 248 246 240 219 225 243 243 240 239 240 246 238 233 235 246 251
293 293 292 291 291 289 287 286 286 288 291 293 295 299 300 301 300 300 301 302 302 303 302 301 301 301 301 302 302 304 302 301 304 306 306 306 306 305 306 305 302 300 299 299 299 299 298 294 295 293 284 274 263 256 255 256 253 257 248 228 223 257 274 276 277 285 280 274 264 254 257 253 230 224 249 246 241 238 235 239 242 243 244 244 245
294 292 289 288 290 286 286 287 288 290 293 295 298 301 301 300 298 299 300 301 303 303 301 299 299 300 301 302 302 301 300 301 303 305 306 306 303 302 302 301 298 297 298 298 301 301 299 300 298 297 291 275 259 254 258 264 279 277 255 235 246 279 285 284 290 290 285 273 265 258 249 247 240 251 254 249 244 nan 245 239 238 nan 249 248 250
290 290 286 283 282 287 289 292 294 295 296 298 299 300 299 298 298 298 299 300 302 301 298 296 296 297 299 300 300 299 299 301 305 306 306 306 302 301 299 299 298 297 298 299 301 299 297 299 300 299 293 272 256 253 253 249 254 259 247 252 259 283 289 286 295 286 278 268 262 257 251 242 247 261 258 nan 258 253 252 253 252 251 248 248 248
287 284 282 283 285 293 296 298 298 298 297 297 295 293 294 294 296 297 298 298 298 295 293 293 294 295 295 296 295 296 298 301 304 307 306 304 301 298 299 299 296 295 297 298 298 296 296 298 301 299 291 271 254 248 237 231 231 237 245 251 265 285 291 292 288 nan nan nan 258 258 252 245 245 266 264 260 257 256 253 253 254 253 249 249 248
282 282 283 287 292 294 302 300 298 295 292 289 288 289 290 293 295 295 296 297 295 292 292 292 293 293 293 293 292 293 297 300 305 306 304 300 299 299 299 299 296 294 295 297 296 296 296 298 301 298 292 283 265 241 232 231 231 233 236 235 270 296 300 nan nan nan nan nan nan nan 248 251 263 260 258 256 255 259 262 258 255 253 249 247 247
279 281 284 288 292 293 290 297 292 288 285 287 288 292 292 294 294 298 299 297 294 292 291 292 292 292 291 291 292 294 299 300 297 299 300 299 299 299 298 297 296 296 295 294 294 295 296 296 297 294 291 289 266 240 237 240 239 237 231 284 287 291 297 301 nan nan nan nan nan nan 251 258 260 257 255 256 256 250 252 256 250 248 250 251 250
279 282 285 286 285 282 284 284 288 288 289 288 290 291 293 295 299 302 300 294 292 293 295 294 293 292 292 292 293 296 298 295 296 299 297 297 298 297 298 297 295 295 294 292 294 295 296 295 294 291 286 279 253 241 241 243 245 240 278 296 294 294 299 297 289 nan nan 270 265 nan nan 258 269 267 264 259 258 258 256 255 252 251 252 252 252
281 283 282 282 281 280 282 285 286 287 290 293 291 292 295 298 302 299 293 290 292 294 293 292 292 294 293 293 296 297 297 297 296 297 296 297 298 297 298 296 293 293 293 292 294 293 291 290 289 284 275 260 252 242 241 249 256 256 279 287 293 296 297 295 nan nan 285 286 nan 281 277 277 278 272 267 266 263 261 259 256 254 252 252 252 252
275 279 282 283 283 283 284 286 288 289 288 283 282 289 298 302 299 293 290 290 291 292 292 292 294 293 292 295 299 299 299 295 295 296 295 297 297 297 298 295 292 293 292 293 292 290 287 285 278 271 263 259 256 252 252 264 271 265 263 292 297 294 293 293 nan nan nan nan nan nan 290 286 280 279 273 269 267 261 257 256 255 255 253 253 253
272 278 281 282 285 285 288 293 298 297 291 287 289 293 302 304 295 290 290 289 290 290 290 291 291 291 292 295 300 297 298 295 297 295 298 299 296 297 298 293 294 295 294 293 290 288 288 280 272 266 263 261 261 263 277 292 283 267 270 289 294 288 287 296 nan nan nan nan nan 293 287 285 284 277 271 266 263 265 263 258 257 258 257 256 257
279 280 277 280 285 290 297 300 304 299 294 293 292 297 299 300 293 293 295 294 291 290 289 289 288 290 289 290 292 286 284 286 290 294 299 293 294 298 296 293 296 296 293 290 288 287 285 278 275 272 267 264 260 265 288 289 274 274 279 289 289 288 287 291 292 nan nan 282 290 291 290 nan nan 278 275 271 267 261 259 259 258 258 262 263 261
268 268 273 287 289 296 309 309 305 306 306 300 290 295 300 301 296 294 292 295 295 292 285 281 283 280 289 285 282 282 280 283 290 295 291 293 292 297 296 294 295 291 287 287 287 285 280 278 277 278 273 272 258 262 277 265 255 270 292 291 294 295 290 291 286 280 275 275 282 289 291 290 286 283 278 274 270 268 nan 264 264 262 nan nan nan
269 271 275 283 278 267 258 284 289 288 307 316 302 300 312 308 309 301 295 298 298 292 278 278 276 280 281 283 282 278 281 284 286 291 289 296 293 298 297 295 290 287 286 285 287 284 279 275 276 278 276 271 267 255 263 264 262 272 290 293 298 294 283 279 275 nan nan 266 nan 287 290 286 283 281 278 278 280 277 270 268 264 264 264 262 262
285 289 291 286 281 275 274 263 257 251 275 300 303 305 314 322 319 308 299 294 298 291 276 273 277 282 284 283 281 280 281 286 298 302 297 291 292 298 299 296 288 285 287 278 284 285 282 278 281 281 270 263 262 256 254 262 266 276 287 295 296 289 277 269 269 264 263 270 280 291 282 278 281 282 nan 277 272 270 nan nan nan nan nan nan nan
288 288 292 306 307 294 284 280 258 259 292 313 317 312 310 314 316 311 300 293 295 291 273 272 278 283 283 282 282 280 282 285 286 285 284 288 284 284 283 271 266 270 271 263 269 274 276 280 280 280 275 265 258 257 255 263 271 279 289 296 295 285 272 265 264 261 260 268 280 285 286 288 283 281 279 277 278 277 277 273 nan nan nan nan nan
293 301 308 303 301 293 292 286 281 282 291 310 322 316 310 306 305 301 292 284 286 277 268 273 280 286 283 282 282 281 282 281 282 285 287 286 285 282 278 272 271 271 264 267 271 277 nan 287 291 284 277 272 263 257 258 274 277 284 290 286 287 277 264 268 269 263 270 282 289 298 297 290 282 279 280 281 279 280 277 274 273 nan nan nan nan
305 307 280 267 271 266 274 286 295 290 287 298 311 312 309 299 295 294 289 277 267 267 267 273 281 286 286 283 282 282 281 281 284 285 285 284 283 281 278 276 276 269 260 267 275 284 nan nan 291 293 289 281 270 261 265 271 278 286 287 282 281 270 261 276 285 268 nan nan 291 296 295 291 288 287 283 277 277 275 nan nan nan nan nan nan nan
290 280 271 272 278 278 278 286 299 304 299 301 307 308 303 297 292 296 286 281 268 260 262 269 275 283 286 283 280 280 281 282 283 284 282 277 280 280 277 276 274 264 256 261 nan 279 nan nan 284 280 286 287 276 273 269 267 272 279 274 267 267 259 255 274 296 284 270 275 283 297 297 295 294 289 283 nan 279 nan 283 279 275 nan nan nan nan
289 284 281 280 279 282 284 287 291 300 303 305 306 302 296 287 283 281 282 287 270 260 258 264 271 277 281 280 279 279 277 279 283 283 278 278 277 277 275 271 260 256 259 263 269 275 nan nan nan 282 281 274 270 271 270 267 275 276 262 258 269 269 259 267 284 283 268 269 274 289 296 296 291 292 293 289 287 284 283 280 277 nan nan 274 nan
296 283 282 280 280 283 289 291 293 298 303 304 303 301 293 282 276 274 275 276 271 263 262 262 264 273 276 275 278 279 280 282 282 281 281 277 274 270 266 261 nan nan 263 270 267 271 nan nan nan nan nan 267 266 264 271 277 281 277 266 261 266 277 273 269 271 279 284 283 279 279 288 288 293 293 295 294 288 280 274 274 nan nan nan nan nan
291 289 284 284 282 284 286 289 293 295 298 303 303 296 279 272 271 272 272 271 271 270 268 265 262 265 270 273 275 277 277 280 284 284 279 276 267 265 262 254 nan nan nan nan 258 273 nan nan nan nan 250 265 263 263 270 280 281 280 275 271 268 272 271 258 260 277 290 289 285 281 283 293 292 290 287 284 287 284 281 279 nan nan nan nan nan
302 299 290 282 285 288 288 290 293 293 296 300 300 292 276 271 271 275 276 276 277 276 274 271 266 262 262 268 271 273 276 281 285 281 280 273 265 263 254 nan nan nan nan nan nan nan nan nan nan 243 245 257 263 259 259 277 283 284 270 264 262 263 260 265 272 282 286 281 280 nan 284 283 291 287 282 281 288 289 285 283 282 283 280 279 nan
300 299 292 288 291 289 289 290 292 292 295 299 299 289 278 276 277 277 277 280 281 280 278 275 268 261 260 263 263 268 271 277 277 279 274 266 263 257 246 245 253 261 nan 261 265 258 251 250 242 241 247 253 259 259 255 262 280 269 252 253 270 273 267 270 285 283 280 282 282 nan 281 279 278 279 283 nan 291 292 289 286 282 279 277 276 277
297 292 290 295 291 287 287 290 294 297 297 296 296 293 284 279 277 276 276 279 280 281 278 274 267 261 261 257 255 259 265 266 270 268 264 259 253 246 238 244 253 260 269 263 261 255 255 251 247 244 248 259 262 261 263 264 256 254 252 nan 272 284 285 288 293 293 289 283 286 nan nan nan nan nan 271 292 278 260 277 280 276 272 273 275 277
292 294 302 299 296 296 295 296 301 300 300 299 299 298 288 284 282 279 279 280 277 275 274 271 266 260 257 250 248 253 260 263 264 267 258 251 242 233 236 251 259 261 264 256 251 245 252 251 248 246 241 244 251 246 247 255 260 259 264 nan nan 286 288 300 306 308 299 292 286 284 282 nan nan nan 245 242 254 264 258 257 262 271 280 280 282
302 302 291 290 296 298 301 299 302 302 300 303 302 303 298 290 286 282 278 274 271 269 267 269 263 253 249 243 243 247 255 258 259 261 255 243 237 232 237 250 257 255 254 247 246 248 249 249 246 254 246 242 250 244 234 249 247 254 nan nan nan 276 293 302 315 315 309 297 292 290 282 280 nan 260 258 245 245 258 260 256 252 252 263 276 291
298 292 292 293 296 298 300 299 304 302 300 302 304 304 300 292 285 277 274 271 267 265 262 261 257 246 238 237 239 247 251 253 255 258 256 239 230 229 230 246 251 253 247 244 244 250 254 253 242 236 248 244 251 259 236 236 250 258 nan nan nan nan nan 308 315 321 315 315 320 310 296 294 284 273 256 257 240 238 250 257 250 239 246 260 253
294 295 297 301 302 300 301 302 299 296 299 302 306 305 297 289 283 280 277 272 264 263 262 258 250 236 230 233 239 245 249 249 247 251 248 229 222 227 231 244 247 247 243 239 243 247 253 258 250 227 241 250 253 273 265 239 253 275 nan nan nan nan nan nan 307 314 317 333 357 351 290 264 271 252 262 253 241 238 232 242 248 237 236 257 294
289 293 295 297 295 297 297 301 298 294 298 309 301 297 290 284 278 280 281 272 262 264 265 254 237 226 224 231 237 241 245 244 242 245 243 230 232 233 237 240 242 243 242 237 240 247 251 252 257 233 211 236 266 268 268 259 255 263 266 260 nan nan nan 270 281 293 289 311 9 32 202 170 240 242 nan 235 219 215 216 213 220 221 219 249 264
289 292 293 293 293 293 297 298 295 299 302 302 287 283 284 289 287 286 273 259 260 267 267 249 226 220 222 227 233 237 239 239 238 240 238 238 245 243 243 240 237 240 243 239 238 250 258 258 258 261 249 235 223 249 260 270 254 251 258 nan 259 nan nan nan nan 268 278 301 321 292 203 129 186 208 202 204 201 190 188 193 205 211 204 196 208
288 290 288 288 290 294 301 302 297 298 293 280 288 303 298 290 282 287 278 262 259 261 261 245 220 215 222 226 232 234 237 240 236 236 237 239 242 241 246 240 237 236 243 238 235 249 258 261 261 258 273 265 237 240 262 272 271 253 246 255 254 254 nan nan nan nan nan 245 211 202 318 137 180 165 172 194 181 174 171 176 189 192 200 191 181
281 283 285 288 289 293 301 295 292 291 286 294 306 304 291 293 288 286 269 246 244 249 244 234 219 212 216 223 229 233 237 241 230 226 232 238 241 240 242 243 240 239 237 232 229 243 253 257 259 249 236 280 267 274 287 276 242 281 285 270 255 248 239 nan nan nan nan 225 253 163 190 174 189 131 140 185 178 163 151 159 nan 182 184 182 181
280 282 283 285 287 290 294 291 289 288 287 292 295 291 288 294 288 283 282 257 246 252 235 218 210 209 208 217 222 229 234 233 229 230 238 240 242 240 238 237 233 235 237 233 236 243 253 266 272 276 273 242 257 263 301 246 nan 262 nan nan nan nan nan 229 225 236 nan nan nan 224 188 186 175 133 122 179 181 167 151 162 nan 182 186 189 171
281 281 283 286 284 286 289 289 291 291 291 293 293 280 276 275 270 276 279 253 240 246 237 225 213 207 202 208 213 223 225 228 236 233 237 244 246 243 239 235 232 226 240 240 241 243 245 244 236 245 272 273 266 273 278 244 nan nan nan nan nan nan nan nan 223 205 213 210 218 223 212 234 213 103 145 217 223 191 197 190 nan 191 195 196 169
283 284 285 285 284 290 287 287 290 293 293 293 287 279 279 288 283 278 270 242 225 235 234 228 219 210 205 206 209 217 223 226 232 234 240 248 244 240 236 235 232 226 234 239 241 245 247 246 257 253 269 283 285 270 268 253 nan nan nan nan nan nan nan nan 229 nan nan nan 220 nan nan 248 259 183 192 193 204 210 211 207 nan 195 196 191 186
292 287 284 285 282 281 283 283 283 287 289 289 285 282 287 293 293 289 282 254 245 242 246 240 226 216 211 211 213 217 220 222 225 232 239 241 237 232 227 232 231 229 233 238 237 236 239 246 256 259 257 269 283 285 272 267 304 nan nan nan nan nan nan nan nan nan nan nan nan 221 235 210 224 221 214 193 211 208 208 200 nan 209 203 198 203
294 287 282 279 278 277 281 282 284 284 283 282 282 281 284 290 296 299 292 282 271 250 242 241 232 217 217 218 219 220 220 225 222 226 233 230 225 221 224 229 229 230 230 237 237 236 234 240 241 245 257 259 264 276 281 283 266 228 253 242 247 nan nan nan nan nan nan 212 225 229 219 212 207 220 nan nan nan 211 198 nan 209 224 214 216 224
290 291 286 282 285 283 283 285 286 286 280 276 278 280 284 287 290 291 290 286 274 264 265 255 238 224 222 223 220 216 218 222 224 222 225 226 221 219 225 227 228 228 232 234 236 228 229 227 239 244 250 261 268 273 273 273 287 262 247 247 nan nan nan nan nan nan nan nan 237 225 220 220 nan 197 nan nan nan 219 210 202 228 231 nan nan nan
273 292 292 291 289 290 291 291 294 292 285 280 278 282 284 288 290 285 284 289 274 261 267 264 250 238 232 225 217 207 213 221 227 227 224 225 224 226 228 227 229 228 229 230 228 229 232 235 237 242 253 259 263 264 269 275 268 270 260 247 nan nan nan nan nan nan nan 251 228 240 234 209 202 193 nan nan nan 227 219 222 231 241 nan nan nan
273 286 292 295 295 296 297 297 299 297 292 290 289 297 297 289 290 291 296 284 267 251 272 284 271 254 248 245 224 211 215 223 224 223 224 224 225 226 228 231 232 232 230 231 230 229 227 232 239 244 251 259 249 261 269 266 264 nan 268 270 nan nan nan nan nan nan nan nan 261 285 249 246 230 191 nan nan 227 233 nan 233 242 246 nan nan nan
255 285 289 290 284 281 278 285 293 293 292 294 297 302 298 292 291 289 287 287 283 270 272 281 279 270 262 254 240 230 230 228 221 217 217 220 220 224 229 230 231 232 231 231 232 233 231 237 242 246 250 256 256 258 254 255 258 263 265 274 nan nan nan nan nan nan nan nan nan nan nan nan nan nan nan 223 234 243 nan 242 nan nan nan nan nan